Starlink 30137

operational
NORAD ID: 56843 Int'l Des: 2023-079 Owner: SPXS Country: US Constellation: starlink
LEOCIRCULAR

Starlink 30137について

説明を読み込み中...

リアルタイム位置

3D地球を読み込み中...

次回通過

高度履歴

Altitude vs Time

uPlot chart will show altitude changes over time

軌道要素

1 56843U 23079W 25354.51057612 -.00001139 00000-0 -69247-4 0 9991
2 56843 43.0025 177.5263 0000986 268.6017 91.4712 15.02527358140979
Epoch: Dec 20, 2025 • Age: 12 hours

現在のステータス

高度 571.1 km
速度 7.58 km/s
衛星直下点 -41.53°S, 32.59°W
打ち上げ日 Jun 4, 2023
運用期間 2.5 years
タイプ internet

技術仕様

分類 Payload
質量 730.00 kg
乾燥質量 700.00 kg
総質量 730.00 kg
長さ 0.30 m
直径 4.10 m
スパン 29.00 m
形状 Box + pan
製造者 SPXS
バスタイプ Starlink V2M
フェーズステータス In Orbit
所有者/国 SPXS/US

大規模コンステレーション

Loading constellations...